Regional Weather Roundup
Issued by NWS

Home | Current Version | Previous Version | Graphics & Text | Print | Product List | Glossary On
Versions: 1 2 3 4 5 6 7 8 9 10 11 12 13 14 15 16 17 18 19 20 21 22 23 24 25 26 27 28 29 30 31 32 33 34 35 36 37 38 39 40 41 42 43 44 45 46 47 48 49 50
000
ASUS45 KSLC 220610
RWRUT

UTAH REGIONAL WEATHER ROUNDUP
NATIONAL WEATHER SERVICE SALT LAKE CITY UT
1200 AM MDT WED MAR 22 2017

UTZ001>011-023>025-220700-

NORTHERN UTAH

CITY           SKY/WX    TMP DP  RH WIND       PRES   REMARKS
BRIGHAM CITY     N/A     58  40  50 CALM      29.93S
HILL AFB       MOCLDY    56  42  58 CALM      29.95R
LOGAN          CLOUDY    60  39  45 W9        29.92R
OGDEN          CLOUDY    58  40  51 CALM      29.93R
SALT LAKE CITY CLOUDY    60  40  47 N14       29.91R
WENDOVER       MOCLDY    55  39  54 NW15      29.93R
HEBER CITY     CLOUDY    57  28  33 SW9       29.95S

$$

UTZ011>015-024>027-220700-

CENTRAL/NORTHEAST UTAH

CITY           SKY/WX    TMP DP  RH WIND       PRES   REMARKS
PROVO AIRPORT  MOCLDY    60  34  37 S8        29.94R
MOAB/CANYONLAN MOCLDY    60  27  28 CALM      29.95F
DELTA          CLOUDY    55  32  41 S12       29.96F
PRICE          MOCLDY    54  28  36 NE8       30.00F
ROOSEVELT      MOCLDY    48  36  61 W3        29.99S
VERNAL         MOCLDY    55  28  35 SW9       29.96

$$

UTZ013>016-019>022-027-220700-

SOUTHERN UTAH

CITY           SKY/WX    TMP DP  RH WIND       PRES   REMARKS
BRYCE CANYON   PTCLDY    35  29  78 SW5       30.14F WCI  31
CEDAR CITY     CLOUDY    56  28  34 S10       30.02S
MILFORD        CLOUDY    56  29  35 S9        29.97S
ST GEORGE      CLOUDY    69  39  33 S3        29.94S
HANKSVILLE     MOCLDY    59  28  31 SE8       29.97S
BLANDING       CLEAR     51  21  31 NE9       30.14R

$$

REGIONAL REPORTS     COLORADO/ARIZONA

CITY           SKY/WX    TMP DP  RH WIND       PRES   REMARKS
CRAIG, CO      CLOUDY    47  27  45 N3        30.05F
GRAND JUNCTION PTCLDY    57  30  35 E8        30.00F
RIFLE, CO      CLEAR     56  30  37 SE9       30.05F
MONTROSE, CO   PTCLDY    50  30  46 S7        30.10F
CORTEZ, CO     CLEAR     40  30  67 S6        30.11S
COLORADO CITY    N/A     54  34  47 E7        30.07S
PAGE, AZ       MOCLDY    68  13  12 S8        29.98R
GRAND CANYON   MOCLDY    49  29  46 SW5       30.15S
KINGMAN, AZ    CLOUDY    59  18  20 S12       29.99S
FLAGSTAFF, AZ  PTCLDY    42  26  53 CALM      30.16F

$$

REGIONAL REPORTS    NEVADA/IDAHO/WYOMING

CITY           SKY/WX    TMP DP  RH WIND       PRES   REMARKS
LAS VEGAS, NV  CLOUDY    70  43  37 W13       29.89F
ELY, NY        CLOUDY    49  38  65 SE17G37   29.99S
ELKO, NV       PTCLDY    40  37  89 SE5       29.97R
POCATELLO, ID  LGT RAIN  48  46  93 SW17      29.95R
BURLEY, ID     LGT RAIN  47  44  90 W7        29.94R
FORT BRIDGER,    N/A     47  31  52 S12       30.03F
EVANSTON, WY   CLOUDY    49  27  42 SW21      29.98F
ROCK SPRINGS,  CLEAR     48  29  47 S9        30.00F
KEMMERER, WY     N/A     45  30  57 CALM      30.01F

$$



USA.gov is the U.S. government's official web portal to all federal, state and local government web resources and services.